,,,PA_Meas_PMT16A,,PR_Meas_QMR101_102,,RH_Meas_QMH101,,SR_Meas_QMS101,,TA_Meas_QMH101,,GenWind,,GenWind,
date,time,status,PA,status,PR,status,RH,status,SR,status,TA,status,DirAvg,status,SpdAvg,
2008-05-11, 00:00:04,VALID,1003.56,VALID,0,VALID,80.889,VALID,0,VALID,26.7434,VALID,113,VALID,1.88203,
2008-05-11, 00:01:04,VALID,1003.55,VALID,0,VALID,80.1338,VALID,0,VALID,26.7649,VALID,103,VALID,2.58828,
2008-05-11, 00:02:04,VALID,1003.54,VALID,0,VALID,79.6608,VALID,0,VALID,26.7239,VALID,112,VALID,2.5043,
2008-05-11, 00:03:04,VALID,1003.57,VALID,0,VALID,79.1725,VALID,0,VALID,26.7455,VALID,114,VALID,3.17656,
2008-05-11, 00:04:04,VALID,1003.55,VALID,0,VALID,78.8826,VALID,0,VALID,26.7434,VALID,114,VALID,2.85859,
2008-05-11, 00:05:04,VALID,1003.53,VALID,0,VALID,78.6766,VALID,0,VALID,26.7455,VALID,129,VALID,2.47422,
2008-05-11, 00:06:04,VALID,1003.53,VALID,0,VALID,78.5317,VALID,0,VALID,26.7045,VALID,122,VALID,3.00703,
2008-05-11, 00:07:04,VALID,1003.51,VALID,0,VALID,78.3944,VALID,0,VALID,26.726,VALID,113,VALID,2.21797,
2008-05-11, 00:08:04,VALID,1003.59,VALID,0,VALID,78.0129,VALID,0,VALID,26.7045,VALID,109,VALID,3.6793,
2008-05-11, 00:09:04,VALID,1003.56,VALID,0,VALID,77.4484,VALID,0,VALID,26.7045,VALID,118,VALID,2.3375,
2008-05-11, 00:10:04,VALID,1003.58,VALID,0,VALID,77.3797,VALID,0,VALID,26.7434,VALID,130,VALID,3.94102,
2008-05-11, 00:11:04,VALID,1003.53,VALID,0,VALID,77.723,VALID,0,VALID,26.7239,VALID,103,VALID,1.62656,
2008-05-11, 00:12:04,VALID,1003.55,VALID,0,VALID,77.5857,VALID,0,VALID,26.7045,VALID,139,VALID,2.44609,
2008-05-11, 00:13:04,VALID,1003.57,VALID,0,VALID,78.1197,VALID,0,VALID,26.685,VALID,104,VALID,1.54102,
2008-05-11, 00:14:04,VALID,1003.54,VALID,0,VALID,77.9443,VALID,0,VALID,26.685,VALID,92,VALID,2.26289,
2008-05-11, 00:15:04,VALID,1003.51,VALID,0,VALID,77.6849,VALID,0,VALID,26.687,VALID,149,VALID,2.9457,
2008-05-11, 00:16:04,VALID,1003.5,VALID,0,VALID,77.7841,VALID,0,VALID,26.687,VALID,123,VALID,2.55117,
2008-05-11, 00:17:04,VALID,1003.47,VALID,0,VALID,78.2113,VALID,0,VALID,26.646,VALID,139,VALID,1.54102,
2008-05-11, 00:18:04,VALID,1003.47,VALID,0,VALID,78.2952,VALID,0,VALID,26.6265,VALID,81,VALID,0.731641,
2008-05-11, 00:19:04,VALID,1003.46,VALID,0,VALID,78.6156,VALID,0,VALID,26.6091,VALID,119,VALID,1.68945,
2008-05-11, 00:20:04,VALID,1003.49,VALID,0,VALID,78.814,VALID,0,VALID,26.5506,VALID,124,VALID,1.69297,
2008-05-11, 00:21:04,VALID,1003.46,VALID,0,VALID,79.0962,VALID,0,VALID,26.5311,VALID,108,VALID,1.36719,
2008-05-11, 00:22:04,VALID,1003.41,VALID,0,VALID,79.1954,VALID,0,VALID,26.4707,VALID,75,VALID,2.72266,
2008-05-11, 00:23:04,VALID,1003.42,VALID,0,VALID,79.1954,VALID,0,VALID,26.4901,VALID,104,VALID,1.46367,
2008-05-11, 00:24:04,VALID,1003.42,VALID,0,VALID,79.5082,VALID,0,VALID,26.4922,VALID,103,VALID,2.23945,
2008-05-11, 00:25:04,VALID,1003.37,VALID,0,VALID,79.8439,VALID,0,VALID,26.4922,VALID,114,VALID,2.33711,
2008-05-11, 00:26:04,VALID,1003.36,VALID,0,VALID,79.8286,VALID,0,VALID,26.4922,VALID,112,VALID,2.48672,
2008-05-11, 00:27:04,VALID,1003.38,VALID,0,VALID,80.1338,VALID,0,VALID,26.4901,VALID,101,VALID,1.61328,
2008-05-11, 00:28:04,VALID,1003.34,VALID,0,VALID,80.149,VALID,0,VALID,26.5116,VALID,95,VALID,1.41094,
2008-05-11, 00:29:04,VALID,1003.35,VALID,0,VALID,80.3626,VALID,0,VALID,26.4707,VALID,105,VALID,1.9918,
2008-05-11, 00:30:04,VALID,1003.35,VALID,0,VALID,80.4771,VALID,0,VALID,26.4922,VALID,126,VALID,1.46445,
2008-05-11, 00:31:04,VALID,1003.31,VALID,0,VALID,80.4237,VALID,0,VALID,26.4727,VALID,114,VALID,2.04375,
2008-05-11, 00:32:04,VALID,1003.28,VALID,0,VALID,80.4237,VALID,0,VALID,26.4512,VALID,107,VALID,1.96875,
2008-05-11, 00:33:04,VALID,1003.29,VALID,0,VALID,80.5457,VALID,0,VALID,26.4707,VALID,139,VALID,1.92773,
2008-05-11, 00:34:04,VALID,1003.28,VALID,0,VALID,80.7212,VALID,0,VALID,26.4727,VALID,139,VALID,1.33711,
2008-05-11, 00:35:04,VALID,1003.3,VALID,0,VALID,80.8051,VALID,0,VALID,26.4512,VALID,114,VALID,2.26719,
2008-05-11, 00:36:04,VALID,1003.28,VALID,0,VALID,80.6373,VALID,0,VALID,26.5116,VALID,126,VALID,1.63477,
2008-05-11, 00:37:04,VALID,1003.29,VALID,0,VALID,80.1566,VALID,0,VALID,26.5291,VALID,90,VALID,1.64297,
2008-05-11, 00:38:04,VALID,1003.25,VALID,0,VALID,80.1795,VALID,0,VALID,26.5096,VALID,95,VALID,1.87969,
2008-05-11, 00:39:04,VALID,1003.26,VALID,0,VALID,80.1872,VALID,0,VALID,26.5096,VALID,106,VALID,1.55117,
2008-05-11, 00:40:04,VALID,1003.28,VALID,0,VALID,79.9888,VALID,0,VALID,26.5116,VALID,106,VALID,2.10313,
2008-05-11, 00:41:04,VALID,1003.25,VALID,0,VALID,80.294,VALID,0,VALID,26.5506,VALID,121,VALID,1.27617,
2008-05-11, 00:42:04,VALID,1003.23,VALID,0,VALID,80.0804,VALID,0,VALID,26.5096,VALID,120,VALID,1.04922,
2008-05-11, 00:43:04,VALID,1003.23,VALID,0,VALID,80.1185,VALID,0,VALID,26.4901,VALID,100,VALID,1.11094,
2008-05-11, 00:44:04,VALID,1003.24,VALID,0,VALID,80.1032,VALID,0,VALID,26.4727,VALID,85,VALID,0.833594,
2008-05-11, 00:45:04,VALID,1003.25,VALID,0,VALID,80.0117,VALID,0,VALID,26.4512,VALID,93,VALID,1.58398,
2008-05-11, 00:46:04,VALID,1003.29,VALID,0,VALID,80.0498,VALID,0,VALID,26.4727,VALID,93,VALID,0.956641,
2008-05-11, 00:47:04,VALID,1003.25,VALID,0,VALID,79.9202,VALID,0,VALID,26.4512,VALID,115,VALID,1.65078,
2008-05-11, 00:48:04,VALID,1003.26,VALID,0,VALID,80.1643,VALID,0,VALID,26.4727,VALID,8,VALID,0.0476562,
2008-05-11, 00:49:04,VALID,1003.26,VALID,0,VALID,79.9049,VALID,0,VALID,26.4532,VALID,97,VALID,1.72109,
2008-05-11, 00:50:04,VALID,1003.28,VALID,0,VALID,80.2177,VALID,0,VALID,26.4337,VALID,97,VALID,1.06875,
2008-05-11, 00:51:04,VALID,1003.22,VALID,0,VALID,80.2482,VALID,0,VALID,26.4122,VALID,77,VALID,0.869922,
2008-05-11, 00:52:04,VALID,1003.27,VALID,0,VALID,80.3092,VALID,0,VALID,26.3733,VALID,68,VALID,0.680469,
2008-05-11, 00:53:04,VALID,1003.23,VALID,0,VALID,80.622,VALID,0,VALID,26.3538,VALID,76,VALID,0.807813,
2008-05-11, 00:54:04,VALID,1003.23,VALID,0,VALID,80.4237,VALID,0,VALID,26.3148,VALID,111,VALID,1.66875,
2008-05-11, 00:55:04,VALID,1003.23,VALID,0,VALID,80.4008,VALID,0,VALID,26.3148,VALID,75,VALID,1.54805,
2008-05-11, 00:56:04,VALID,1003.27,VALID,0,VALID,80.4465,VALID,0,VALID,26.2953,VALID,79,VALID,1.17578,
2008-05-11, 00:57:04,VALID,1003.23,VALID,0,VALID,80.3092,VALID,0,VALID,26.3168,VALID,100,VALID,1.29453,
2008-05-11, 00:58:04,VALID,1003.23,VALID,0,VALID,80.2406,VALID,0,VALID,26.3363,VALID,88,VALID,1.81953,
2008-05-11, 00:59:04,VALID,1003.2,VALID,0,VALID,80.1948,VALID,0.100563,VALID,26.3538,VALID,109,VALID,1.67734,
2008-05-11, 01:00:04,VALID,1003.18,VALID,0,VALID,80.1185,VALID,0,VALID,26.3538,VALID,76,VALID,1.36914,
2008-05-11, 01:01:04,VALID,1003.19,VALID,0,VALID,80.2482,VALID,0,VALID,26.3343,VALID,97,VALID,1.26328,
2008-05-11, 01:02:04,VALID,1003.15,VALID,0,VALID,80.3169,VALID,0,VALID,26.3148,VALID,88,VALID,0.911328,
2008-05-11, 01:03:04,VALID,1003.13,VALID,0,VALID,80.4084,VALID,0.100563,VALID,26.3148,VALID,92,VALID,1.59141,
2008-05-11, 01:04:04,VALID,1003.08,VALID,0,VALID,80.4771,VALID,0,VALID,26.2933,VALID,94,VALID,1.53906,
2008-05-11, 01:05:04,VALID,1003.07,VALID,0,VALID,80.4847,VALID,0,VALID,26.3148,VALID,100,VALID,1.46836,
2008-05-11, 01:06:04,VALID,1003.08,VALID,0,VALID,80.6296,VALID,0,VALID,26.2953,VALID,106,VALID,1.20586,
2008-05-11, 01:07:04,VALID,1003.04,VALID,0,VALID,80.7746,VALID,0,VALID,26.2759,VALID,121,VALID,1.15977,
2008-05-11, 01:08:04,VALID,1003.04,VALID,0,VALID,80.8204,VALID,0,VALID,26.2759,VALID,108,VALID,0.952344,
2008-05-11, 01:09:04,VALID,1003.04,VALID,0,VALID,81.0111,VALID,0,VALID,26.2154,VALID,63,VALID,1.20703,
2008-05-11, 01:10:04,VALID,1003,VALID,0,VALID,81.095,VALID,0,VALID,26.1979,VALID,71,VALID,1.56914,
2008-05-11, 01:11:04,VALID,1002.98,VALID,0,VALID,81.3849,VALID,0,VALID,26.159,VALID,98,VALID,0.992188,
2008-05-11, 01:12:04,VALID,1003.02,VALID,0,VALID,81.69,VALID,0,VALID,26.1395,VALID,101,VALID,1.3293,
2008-05-11, 01:13:04,VALID,1003.02,VALID,0,VALID,81.7511,VALID,0,VALID,26.0596,VALID,83,VALID,0.673047,
2008-05-11, 01:14:04,VALID,1003,VALID,0,VALID,82.0715,VALID,0,VALID,26.081,VALID,75,VALID,1.30273,
2008-05-11, 01:15:04,VALID,1002.99,VALID,0,VALID,82.1554,VALID,0,VALID,26.0616,VALID,113,VALID,1.32578,
2008-05-11, 01:16:04,VALID,1003.01,VALID,0,VALID,82.4072,VALID,0,VALID,26.0421,VALID,110,VALID,0.825781,
2008-05-11, 01:17:04,VALID,1002.99,VALID,0,VALID,82.4301,VALID,0,VALID,26.0635,VALID,111,VALID,2.05117,
2008-05-11, 01:18:04,VALID,1003,VALID,0,VALID,82.514,VALID,0,VALID,26.0421,VALID,94,VALID,1.1832,
2008-05-11, 01:19:04,VALID,1003,VALID,0,VALID,82.5369,VALID,0,VALID,26.0421,VALID,60,VALID,2.02383,
2008-05-11, 01:20:04,VALID,1003.01,VALID,0,VALID,82.575,VALID,0.100563,VALID,26.0401,VALID,121,VALID,1.30039,
2008-05-11, 01:21:04,VALID,1003.03,VALID,0,VALID,82.636,VALID,0,VALID,26.0421,VALID,104,VALID,1.21484,
2008-05-11, 01:22:04,VALID,1003.02,VALID,0,VALID,82.6742,VALID,0,VALID,26.0421,VALID,112,VALID,1.06602,
2008-05-11, 01:23:04,VALID,1003,VALID,0,VALID,82.575,VALID,0,VALID,26.0616,VALID,91,VALID,2.09219,
2008-05-11, 01:24:04,VALID,1003.03,VALID,0,VALID,82.5216,VALID,0,VALID,26.081,VALID,66,VALID,0.76875,
2008-05-11, 01:25:04,VALID,1003.04,VALID,0,VALID,82.7505,VALID,0,VALID,26.081,VALID,97,VALID,1.03164,
2008-05-11, 01:26:04,VALID,1003.02,VALID,0,VALID,82.7123,VALID,0,VALID,26.0596,VALID,115,VALID,1.01484,
2008-05-11, 01:27:04,VALID,1003.01,VALID,0,VALID,82.7428,VALID,0,VALID,26.0616,VALID,109,VALID,1.05742,
2008-05-11, 01:28:04,VALID,1003.01,VALID,0,VALID,82.7505,VALID,0.100563,VALID,26.0596,VALID,99,VALID,1.48828,
2008-05-11, 01:29:04,VALID,1003.01,VALID,0,VALID,82.7657,VALID,0,VALID,26.0596,VALID,100,VALID,1.30195,
2008-05-11, 01:30:04,VALID,1003,VALID,0,VALID,82.9183,VALID,0,VALID,26.0616,VALID,50,VALID,0.855859,
2008-05-11, 01:31:04,VALID,1002.98,VALID,0,VALID,82.9946,VALID,0,VALID,26.0401,VALID,81,VALID,1.4125,
2008-05-11, 01:32:04,VALID,1002.97,VALID,0,VALID,82.8878,VALID,0,VALID,26.0401,VALID,117,VALID,0.726563,
2008-05-11, 01:33:04,VALID,1002.99,VALID,0,VALID,82.8191,VALID,0.100563,VALID,26.0616,VALID,74,VALID,1.57891,
2008-05-11, 01:34:04,VALID,1002.98,VALID,0,VALID,82.8039,VALID,0,VALID,26.081,VALID,110,VALID,1.38086,
2008-05-11, 01:35:04,VALID,1002.99,VALID,0,VALID,82.4529,VALID,0,VALID,26.12,VALID,94,VALID,2.01055,
2008-05-11, 01:36:04,VALID,1002.97,VALID,0,VALID,82.4606,VALID,0,VALID,26.159,VALID,105,VALID,1.54375,
2008-05-11, 01:37:04,VALID,1002.97,VALID,0,VALID,82.4682,VALID,0,VALID,26.159,VALID,96,VALID,0.776563,
2008-05-11, 01:38:04,VALID,1002.99,VALID,0,VALID,82.3843,VALID,0.100563,VALID,26.159,VALID,99,VALID,1.22344,
2008-05-11, 01:39:04,VALID,1002.94,VALID,0,VALID,82.3156,VALID,0,VALID,26.159,VALID,83,VALID,0.532422,
2008-05-11, 01:40:04,VALID,1002.94,VALID,0,VALID,82.514,VALID,0,VALID,26.159,VALID,90,VALID,1.50312,
2008-05-11, 01:41:04,VALID,1002.94,VALID,0,VALID,82.5063,VALID,0,VALID,26.1609,VALID,94,VALID,1.35352,
2008-05-11, 01:42:04,VALID,1002.91,VALID,0,VALID,82.4758,VALID,0,VALID,26.1395,VALID,79,VALID,1.94375,
2008-05-11, 01:43:04,VALID,1002.9,VALID,0,VALID,82.4911,VALID,0,VALID,26.1395,VALID,75,VALID,0.53125,
2008-05-11, 01:44:04,VALID,1002.88,VALID,0,VALID,82.4529,VALID,0.100563,VALID,26.1395,VALID,74,VALID,1.57734,
2008-05-11, 01:45:04,VALID,1002.87,VALID,0,VALID,82.5292,VALID,0,VALID,26.1395,VALID,78,VALID,1.40742,
2008-05-11, 01:46:04,VALID,1002.9,VALID,0,VALID,82.6589,VALID,0,VALID,26.1395,VALID,97,VALID,1.08828,
2008-05-11, 01:47:04,VALID,1002.87,VALID,0,VALID,82.8115,VALID,0,VALID,26.1395,VALID,80,VALID,0.4625,
2008-05-11, 01:48:04,VALID,1002.86,VALID,0,VALID,82.6131,VALID,0.100563,VALID,26.1395,VALID,92,VALID,1.56836,
2008-05-11, 01:49:04,VALID,1002.89,VALID,0,VALID,82.7047,VALID,0,VALID,26.1395,VALID,53,VALID,1.14609,
2008-05-11, 01:50:04,VALID,1002.87,VALID,0,VALID,82.6742,VALID,0,VALID,26.118,VALID,85,VALID,2.04531,
2008-05-11, 01:51:04,VALID,1002.89,VALID,0,VALID,82.8268,VALID,0,VALID,26.12,VALID,89,VALID,1.00586,
2008-05-11, 01:52:04,VALID,1002.89,VALID,0,VALID,83.0175,VALID,0,VALID,26.1005,VALID,50,VALID,0.787109,
2008-05-11, 01:53:04,VALID,1002.88,VALID,0,VALID,83.0938,VALID,0,VALID,26.081,VALID,13,VALID,0.436719,
2008-05-11, 01:54:04,VALID,1002.9,VALID,0,VALID,83.3913,VALID,0,VALID,26.0226,VALID,45,VALID,0.904297,
2008-05-11, 01:55:04,VALID,1002.87,VALID,0,VALID,83.5362,VALID,0,VALID,26.0226,VALID,86,VALID,1.59141,
2008-05-11, 01:56:04,VALID,1002.84,VALID,0,VALID,83.6888,VALID,0,VALID,26.0031,VALID,62,VALID,1.0332,
2008-05-11, 01:57:04,VALID,1002.86,VALID,0,VALID,84.0016,VALID,0,VALID,25.9836,VALID,83,VALID,1.7082,
2008-05-11, 01:58:04,VALID,1002.87,VALID,0,VALID,84.0321,VALID,0,VALID,25.9447,VALID,94,VALID,1.27188,
2008-05-11, 01:59:04,VALID,1002.86,VALID,0,VALID,84.3754,VALID,0,VALID,25.9447,VALID,81,VALID,1.67656,
2008-05-11, 02:00:04,VALID,1002.84,VALID,0,VALID,84.2839,VALID,0,VALID,25.9447,VALID,81,VALID,1.59883,
2008-05-11, 02:01:04,VALID,1002.82,VALID,0,VALID,84.5585,VALID,0,VALID,25.9252,VALID,27,VALID,1.04297,
2008-05-11, 02:02:04,VALID,1002.82,VALID,0,VALID,84.4288,VALID,0,VALID,25.9447,VALID,102,VALID,1.96289,
2008-05-11, 02:03:04,VALID,1002.82,VALID,0,VALID,84.5204,VALID,0,VALID,25.9038,VALID,71,VALID,1.6418,
2008-05-11, 02:04:04,VALID,1002.79,VALID,0,VALID,84.7111,VALID,0,VALID,25.8863,VALID,77,VALID,1.77031,
2008-05-11, 02:05:04,VALID,1002.77,VALID,0,VALID,84.7187,VALID,0,VALID,25.9077,VALID,35,VALID,0.813281,
2008-05-11, 02:06:04,VALID,1002.8,VALID,0,VALID,84.7874,VALID,0,VALID,25.8882,VALID,84,VALID,0.555859,
2008-05-11, 02:07:04,VALID,1002.77,VALID,0,VALID,84.6806,VALID,0,VALID,25.8493,VALID,96,VALID,2.37305,
2008-05-11, 02:08:04,VALID,1002.8,VALID,0,VALID,85.0086,VALID,0,VALID,25.8083,VALID,23,VALID,0.590234,
2008-05-11, 02:09:04,VALID,1002.76,VALID,0,VALID,85.1078,VALID,0,VALID,25.7694,VALID,74,VALID,1.60781,
2008-05-11, 02:10:04,VALID,1002.76,VALID,0,VALID,85.2909,VALID,0,VALID,25.709,VALID,62,VALID,2.0625,
2008-05-11, 02:11:04,VALID,1002.72,VALID,0,VALID,85.4511,VALID,0,VALID,25.7324,VALID,76,VALID,1.21914,
2008-05-11, 02:12:04,VALID,1002.71,VALID,0,VALID,85.5808,VALID,0,VALID,25.6915,VALID,99,VALID,1.66055,
2008-05-11, 02:13:04,VALID,1002.74,VALID,0,VALID,85.9241,VALID,0,VALID,25.6739,VALID,103,VALID,1.29062,
2008-05-11, 02:14:04,VALID,1002.73,VALID,0,VALID,86.0385,VALID,0,VALID,25.6525,VALID,88,VALID,1.66523,
2008-05-11, 02:15:04,VALID,1002.71,VALID,0,VALID,86.1911,VALID,0,VALID,25.5921,VALID,89,VALID,1.42109,
2008-05-11, 02:16:04,VALID,1002.71,VALID,0,VALID,86.4047,VALID,0,VALID,25.633,VALID,25,VALID,1.37188,
2008-05-11, 02:17:04,VALID,1002.72,VALID,0,VALID,86.481,VALID,0,VALID,25.5921,VALID,88,VALID,1.60898,
2008-05-11, 02:18:04,VALID,1002.69,VALID,0,VALID,86.5649,VALID,0,VALID,25.6136,VALID,68,VALID,1.06836,
2008-05-11, 02:19:04,VALID,1002.72,VALID,0,VALID,86.4123,VALID,0,VALID,25.633,VALID,91,VALID,1.9418,
2008-05-11, 02:20:04,VALID,1002.71,VALID,0,VALID,86.5039,VALID,0,VALID,25.633,VALID,67,VALID,0.846484,
2008-05-11, 02:21:04,VALID,1002.66,VALID,0,VALID,86.4505,VALID,0,VALID,25.633,VALID,104,VALID,1.63633,
2008-05-11, 02:22:04,VALID,1002.68,VALID,0,VALID,86.42,VALID,0,VALID,25.6525,VALID,86,VALID,1.96211,
2008-05-11, 02:23:04,VALID,1002.7,VALID,0,VALID,86.4734,VALID,0,VALID,25.6525,VALID,83,VALID,1.58281,
2008-05-11, 02:24:04,VALID,1002.66,VALID,0,VALID,86.3055,VALID,0,VALID,25.6525,VALID,70,VALID,1.60703,
2008-05-11, 02:25:04,VALID,1002.7,VALID,0,VALID,86.3589,VALID,0,VALID,25.672,VALID,86,VALID,1.88281,
2008-05-11, 02:26:04,VALID,1002.68,VALID,0,VALID,86.3284,VALID,0,VALID,25.6525,VALID,81,VALID,1.12344,
2008-05-11, 02:27:04,VALID,1002.66,VALID,0,VALID,86.3437,VALID,0,VALID,25.6525,VALID,104,VALID,0.585938,
2008-05-11, 02:28:04,VALID,1002.69,VALID,0,VALID,86.4886,VALID,0,VALID,25.6311,VALID,76,VALID,1.08047,
2008-05-11, 02:29:04,VALID,1002.67,VALID,0,VALID,86.5344,VALID,0,VALID,25.6116,VALID,98,VALID,1.02539,
2008-05-11, 02:30:04,VALID,1002.73,VALID,0,VALID,86.481,VALID,0,VALID,25.633,VALID,102,VALID,0.748828,
2008-05-11, 02:31:04,VALID,1002.67,VALID,0,VALID,86.42,VALID,0,VALID,25.633,VALID,57,VALID,1.2,
2008-05-11, 02:32:04,VALID,1002.68,VALID,0,VALID,86.2292,VALID,0,VALID,25.6525,VALID,96,VALID,2.1168,
2008-05-11, 02:33:04,VALID,1002.66,VALID,0,VALID,86.2216,VALID,0,VALID,25.6506,VALID,109,VALID,0.844531,
2008-05-11, 02:34:04,VALID,1002.69,VALID,0,VALID,86.0233,VALID,0,VALID,25.6915,VALID,64,VALID,1.61289,
2008-05-11, 02:35:04,VALID,1002.71,VALID,0,VALID,86.0538,VALID,0,VALID,25.6915,VALID,86,VALID,0.739062,
2008-05-11, 02:36:04,VALID,1002.68,VALID,0,VALID,85.802,VALID,0,VALID,25.7109,VALID,84,VALID,1.3832,
2008-05-11, 02:37:04,VALID,1002.68,VALID,0,VALID,85.6494,VALID,0,VALID,25.709,VALID,56,VALID,1.18867,
2008-05-11, 02:38:04,VALID,1002.68,VALID,0,VALID,85.5045,VALID,0,VALID,25.7694,VALID,59,VALID,1.48242,
2008-05-11, 02:39:04,VALID,1002.67,VALID,0,VALID,85.4129,VALID,0,VALID,25.7694,VALID,77,VALID,2.09336,
2008-05-11, 02:40:04,VALID,1002.63,VALID,0,VALID,85.2756,VALID,0,VALID,25.8083,VALID,97,VALID,2.72266,
2008-05-11, 02:41:04,VALID,1002.67,VALID,0,VALID,85.1993,VALID,0.100563,VALID,25.8083,VALID,90,VALID,1.69922,
2008-05-11, 02:42:04,VALID,1002.67,VALID,0,VALID,85.0239,VALID,0,VALID,25.8278,VALID,62,VALID,2.51289,
2008-05-11, 02:43:04,VALID,1002.63,VALID,0,VALID,84.9628,VALID,0,VALID,25.8473,VALID,85,VALID,2.0707,
2008-05-11, 02:44:04,VALID,1002.69,VALID,0,VALID,85.0086,VALID,0,VALID,25.8668,VALID,85,VALID,1.17773,
2008-05-11, 02:45:04,VALID,1002.68,VALID,0,VALID,84.7492,VALID,0,VALID,25.8648,VALID,77,VALID,2.59102,
2008-05-11, 02:46:04,VALID,1002.66,VALID,0,VALID,84.383,VALID,0,VALID,25.8863,VALID,103,VALID,2.65469,
2008-05-11, 02:47:04,VALID,1002.71,VALID,0,VALID,84.1389,VALID,0,VALID,25.9252,VALID,86,VALID,2.81797,
2008-05-11, 02:48:04,VALID,1002.67,VALID,0,VALID,83.8948,VALID,0,VALID,25.9642,VALID,66,VALID,2.09414,
2008-05-11, 02:49:04,VALID,1002.66,VALID,0,VALID,83.5744,VALID,0,VALID,25.9622,VALID,100,VALID,2.44727,
2008-05-11, 02:50:04,VALID,1002.67,VALID,0,VALID,83.6278,VALID,0,VALID,25.9836,VALID,106,VALID,2.53672,
2008-05-11, 02:51:04,VALID,1002.71,VALID,0,VALID,83.6736,VALID,0,VALID,25.9622,VALID,108,VALID,1.65352,
2008-05-11, 02:52:04,VALID,1002.69,VALID,0,VALID,83.6202,VALID,0,VALID,25.9642,VALID,90,VALID,1.67109,
2008-05-11, 02:53:04,VALID,1002.7,VALID,0,VALID,83.4142,VALID,0,VALID,25.9427,VALID,92,VALID,1.56562,
2008-05-11, 02:54:04,VALID,1002.7,VALID,0,VALID,83.5362,VALID,0,VALID,25.9427,VALID,92,VALID,1.72109,
2008-05-11, 02:55:04,VALID,1002.68,VALID,0,VALID,83.0327,VALID,0,VALID,26.0031,VALID,90,VALID,2.73281,
2008-05-11, 02:56:04,VALID,1002.65,VALID,0,VALID,82.9564,VALID,0,VALID,26.0031,VALID,55,VALID,2.20937,
2008-05-11, 02:57:04,VALID,1002.67,VALID,0,VALID,82.8268,VALID,0,VALID,26.0012,VALID,145,VALID,1.04609,
2008-05-11, 02:58:04,VALID,1002.66,VALID,0,VALID,82.842,VALID,0,VALID,26.0226,VALID,81,VALID,1.06289,
2008-05-11, 02:59:04,VALID,1002.66,VALID,0,VALID,82.4072,VALID,0,VALID,26.0012,VALID,89,VALID,2.57031,
2008-05-11, 03:00:04,VALID,1002.67,VALID,0,VALID,82.4224,VALID,0,VALID,26.0401,VALID,82,VALID,2.04531,
2008-05-11, 03:01:04,VALID,1002.65,VALID,0,VALID,82.3309,VALID,0,VALID,26.0616,VALID,87,VALID,2.49453,
2008-05-11, 03:02:04,VALID,1002.65,VALID,0,VALID,82.4072,VALID,0,VALID,26.0616,VALID,81,VALID,1.69609,
2008-05-11, 03:03:04,VALID,1002.66,VALID,0,VALID,82.7276,VALID,0,VALID,26.0421,VALID,111,VALID,1.67383,
2008-05-11, 03:04:04,VALID,1002.63,VALID,0,VALID,82.8344,VALID,0,VALID,26.0031,VALID,90,VALID,2.00039,
2008-05-11, 03:05:04,VALID,1002.64,VALID,0,VALID,82.9183,VALID,0,VALID,26.0031,VALID,103,VALID,2.21016,
2008-05-11, 03:06:04,VALID,1002.64,VALID,0,VALID,83.1167,VALID,0,VALID,26.0031,VALID,87,VALID,2.33984,
2008-05-11, 03:07:04,VALID,1002.62,VALID,0,VALID,83.2082,VALID,0,VALID,25.9642,VALID,85,VALID,1.77344,
2008-05-11, 03:08:04,VALID,1002.63,VALID,0,VALID,83.3989,VALID,0,VALID,25.9622,VALID,79,VALID,1.22227,
2008-05-11, 03:09:04,VALID,1002.58,VALID,0,VALID,83.5057,VALID,0,VALID,25.9642,VALID,89,VALID,2.59531,
2008-05-11, 03:10:04,VALID,1002.59,VALID,0,VALID,83.6888,VALID,0,VALID,25.9232,VALID,77,VALID,1.46797,
2008-05-11, 03:11:04,VALID,1002.56,VALID,0,VALID,83.7956,VALID,0,VALID,25.9467,VALID,99,VALID,1.81445,
2008-05-11, 03:12:04,VALID,1002.59,VALID,0,VALID,83.9787,VALID,0,VALID,25.9038,VALID,109,VALID,2.38477,
2008-05-11, 03:13:04,VALID,1002.59,VALID,0,VALID,83.9024,VALID,0.100563,VALID,25.9447,VALID,73,VALID,2.66758,
2008-05-11, 03:14:04,VALID,1002.57,VALID,0,VALID,83.9787,VALID,0,VALID,25.9038,VALID,103,VALID,1.47539,
2008-05-11, 03:15:04,VALID,1002.56,VALID,0,VALID,84.0397,VALID,0,VALID,25.8843,VALID,103,VALID,2.80977,
2008-05-11, 03:16:04,VALID,1002.6,VALID,0,VALID,84.1542,VALID,0.100563,VALID,25.9057,VALID,72,VALID,2.06289,
2008-05-11, 03:17:04,VALID,1002.6,VALID,0,VALID,84.2915,VALID,0,VALID,25.8453,VALID,80,VALID,1.65156,
2008-05-11, 03:18:04,VALID,1002.6,VALID,0,VALID,84.4364,VALID,0.100563,VALID,25.8453,VALID,109,VALID,1.79922,
2008-05-11, 03:19:04,VALID,1002.59,VALID,0,VALID,84.6043,VALID,0,VALID,25.8473,VALID,108,VALID,1.43555,
2008-05-11, 03:20:04,VALID,1002.57,VALID,0,VALID,84.8713,VALID,0,VALID,25.8278,VALID,41,VALID,3.61719,
2008-05-11, 03:21:04,VALID,1002.62,VALID,0,VALID,84.9247,VALID,0,VALID,25.7674,VALID,95,VALID,2.16602,
2008-05-11, 03:22:04,VALID,1002.63,VALID,0,VALID,85.2604,VALID,0,VALID,25.7889,VALID,116,VALID,2.60234,
2008-05-11, 03:23:04,VALID,1002.59,VALID,0,VALID,85.4053,VALID,0,VALID,25.7694,VALID,100,VALID,3.31211,
2008-05-11, 03:24:04,VALID,1002.59,VALID,0,VALID,85.4969,VALID,0.100563,VALID,25.7694,VALID,68,VALID,2.30859,
2008-05-11, 03:25:04,VALID,1002.6,VALID,0,VALID,85.6189,VALID,0,VALID,25.7694,VALID,69,VALID,2.55898,
2008-05-11, 03:26:04,VALID,1002.59,VALID,0,VALID,85.5121,VALID,0,VALID,25.748,VALID,119,VALID,3.57617,
2008-05-11, 03:27:04,VALID,1002.58,VALID,0,VALID,85.3595,VALID,0,VALID,25.7499,VALID,103,VALID,4.38086,
2008-05-11, 03:28:04,VALID,1002.56,VALID,0,VALID,85.3748,VALID,0,VALID,25.7694,VALID,82,VALID,1.96797,
2008-05-11, 03:29:04,VALID,1002.55,VALID,0,VALID,85.2527,VALID,0,VALID,25.7499,VALID,87,VALID,2.55938,
2008-05-11, 03:30:04,VALID,1002.55,VALID,0,VALID,85.3214,VALID,0,VALID,25.7499,VALID,79,VALID,2.65859,
2008-05-11, 03:31:04,VALID,1002.53,VALID,0,VALID,85.2909,VALID,0,VALID,25.7499,VALID,91,VALID,1.38555,
2008-05-11, 03:32:04,VALID,1002.57,VALID,0,VALID,85.3672,VALID,0,VALID,25.709,VALID,78,VALID,1.42578,
2008-05-11, 03:33:04,VALID,1002.49,VALID,0,VALID,85.2527,VALID,0,VALID,25.709,VALID,57,VALID,2.45625,
2008-05-11, 03:34:04,VALID,1002.56,VALID,0,VALID,85.2527,VALID,0,VALID,25.7109,VALID,83,VALID,2.03164,
2008-05-11, 03:35:04,VALID,1002.52,VALID,0,VALID,84.9247,VALID,0,VALID,25.7109,VALID,89,VALID,2.66406,
2008-05-11, 03:36:04,VALID,1002.5,VALID,0,VALID,84.528,VALID,0.100563,VALID,25.7499,VALID,114,VALID,4.05195,
2008-05-11, 03:37:04,VALID,1002.6,VALID,0,VALID,84.4212,VALID,0,VALID,25.7694,VALID,89,VALID,2.55117,
2008-05-11, 03:38:04,VALID,1002.56,VALID,0,VALID,84.2839,VALID,0,VALID,25.7694,VALID,79,VALID,1.68203,
2008-05-11, 03:39:04,VALID,1002.55,VALID,0,VALID,84.2076,VALID,0,VALID,25.7694,VALID,50,VALID,1.84805,
2008-05-11, 03:40:04,VALID,1002.58,VALID,0,VALID,83.9406,VALID,0,VALID,25.7889,VALID,75,VALID,2.10977,
2008-05-11, 03:41:04,VALID,1002.59,VALID,0,VALID,83.8872,VALID,0,VALID,25.8083,VALID,81,VALID,2.07695,
2008-05-11, 03:42:04,VALID,1002.55,VALID,0,VALID,83.5668,VALID,0,VALID,25.8278,VALID,112,VALID,1.44531,
2008-05-11, 03:43:04,VALID,1002.58,VALID,0,VALID,82.6971,VALID,0,VALID,25.8064,VALID,110,VALID,2.28008,
2008-05-11, 03:44:04,VALID,1002.62,VALID,0,VALID,82.3614,VALID,0,VALID,25.8668,VALID,79,VALID,1.81484,
2008-05-11, 03:45:04,VALID,1002.58,VALID,0,VALID,80.9272,VALID,0,VALID,25.8668,VALID,89,VALID,2.45977,
2008-05-11, 03:46:04,VALID,1002.64,VALID,0,VALID,80.7441,VALID,0,VALID,25.9232,VALID,105,VALID,1.3875,